sat.trackr.live / text

‹ back to catalog

STARLINK-33893

NORAD 64253 · 2025-119W

PAYLOAD ACTIVE UNKNOWN

§ Identity

Operator
Country
US
Launch date
2025-06-03
Launch site
AFETR
Launch vehicle
Mass (kg)
RCS (m²)

Purposes: comms

External: N2YO · Heavens-Above · Gunter

§ Orbital elements

Epoch: 2026-05-24T15:31:01.244352Z

Period
94.27 min
Inclination
43.0007°
Eccentricity
0.0000685
Mean motion
15.27588290 rev/d
Perigee alt
482.6 km
Apogee alt
483.5 km
Semi-major
6,861.2 km
B*
4.2693e-4
RAAN
238.2829°
Arg perigee
260.4077°
Mean anomaly
99.6698°
Rev number
5,578

§ Raw data

STARLINK-338931 64253U 25119W   26144.64654218  .00011507  00000+0  42693-3 0  99912 64253  43.0007 238.2829 0000685 260.4077  99.6698 15.27588290 55784

JSON: /api/v1/satellites/64253 · /tle

For live sub-satellite position, see the globe view (requires WebGL).

§ Visibility from observer

Set your observer location to see the next 7 days of passes ≥ 10°. The values pass through the URL so the page stays shareable.

No JS? Fill the form by hand. The geolocation button needs JavaScript.